Location: Bay Shore Mobile Home Park
(38.5762°N, 75.0841°W)
Time: 08:24:02
(UTC+00:00)

Cosmos 2369 Rocket - Pass Details

Date: 15 November 2025
Orbit: 826 x 852 km, 71.0° (Epoch: 05 December)

Event Time Altitude Azimuth Distance (km) Brightness Sun altitude
Rises 23:35:06 0° 165° (SSE) 3,350 5.2 -21.1°
Reaches altitude 10° 23:37:59 10° 151° (SSE) 2,424 4.4 -21.7°
Enters shadow 23:38:09 11° 150° (SSE) 2,374 4.3 -21.7°
